Terug naar catalogus

STARLINK-32081

ActiefCommunicatieVLEO
NORAD 60348·PAYLOAD·🇺🇸 United States

Gelanceerd Aug 2, 2024 vanaf Cape Canaveral Space Force Station

Loading…

Volgende Passages (komende 24 uur)

TLE

VersSource: CelesTrak SupGP

Epoch: Sep 15, 2026, 02:11 UTC

1 60348C 24136V   26258.09145833  .00003677  00000+0  11822-3 0  2580
2 60348  53.1575 274.3880 0001324  77.1080 306.4181 15.31707972    10

Volg STARLINK-32081 in realtime met AllMySat

Download on the App Store